STARLINK-35754 (67054 NORAD) Tracking and Keplerian Element Data

This shows tracking and keplerian element data for the satellite.

Feedback or suggestion? Click here.




ElementValue
Catalog67054
NameSTARLINK-35754
Epoch Orbit132
Epoch Day354.25003472
Epoch Year2025
RAAN136.1681
Inclination43.0002
Eccentricity0.0001792
Argument of Perigee260.1149
Mean Anonmoly15.8869
Mean Motion15.89464676
Decay Rate-0.01472462
L11 67054U 25294AA 25354.25003472 -.01472462 00000+0 -56043-2 0 9993
L22 67054 43.0002 136.1681 0001792 260.1149 15.8869 15.89464676 1320



Live tracking and technical data element details for STARLINK-35754 (NORAD 67054). STARLINK-35754 can be tracked NOW for your location showing map with azimuth and elevation plus other details from your city location.







IsCatalogInMostPopularTable: catalog: 67054, numindb: 43
Update: records affected: 1



GetName: 67054 STARLINK-35754

Hit Count: updated at: Tue, 17 Feb 2026 12:00:09 GMT